Other Public Products
Issued by NWS Grand Forks, ND

Home | Current Version | Previous Version | Graphics & Text | Print | Product List | Glossary On
Versions: 1 2 3 4 5 6 7 8 9 10 11 12 13 14 15 16 17 18 19 20 21 22 23 24 25 26 27 28 29 30 31 32 33 34 35 36 37 38 39 40 41 42 43 44 45 46 47 48 49 50
000
FPUS83 KFGF 290910
OPUFGF
PRAIRIE TO PINES WEATHER ROUNDUP
NATIONAL WEATHER SERVICE EASTERN NORTH DAKOTA/GRAND FORKS ND
400 AM CDT SUN MAY 29 2016

 **SATELLITE DATA USED TO AUGMENT SKY COVER AT AUTOMATED STATIONS**
 *****  WEATHER ACROSS EASTERN NORTH DAKOTA  *****

CITY           SKY/WX    TMP DP  RH WIND       PRES   REMARKS
GRAND FORKS    CLOUDY    59  57  93 W5        29.87R
GRAND FORKS AF CLOUDY    58  58 100 NW3       29.88S
GRAND CITY NWS   N/A     57 N/A N/A NW1         N/A
BUXTON           N/A     60  60  99 NW6         N/A
DEVILS LAKE    CLOUDY    58  56  93 N6        29.92S
FARGO          CLOUDY    60  57  89 W6        29.88R
WAHPETON ARPT  PTSUNNY   52  50  93 W6        29.90R
$$

 *****  WEATHER ACROSS CENTRAL AND WESTERN NORTH DAKOTA  *****

CITY           SKY/WX    TMP DP  RH WIND       PRES   REMARKS
JAMESTOWN      PTCLDY    55  54  96 W5        29.91R
BISMARCK       CLEAR     51  50  96 W3        29.98R
MINOT          CLEAR     54  52  93 SW7       29.94R
MINOT AFB      CLEAR     52  51  97 SW7       29.93S
GARRISON         N/A     51  50  96 NW6       29.96R
WILLISTON      CLEAR     44  42  93 S3        29.98R
DICKINSON      CLOUDY    49  46  90 W7        29.99S
HETTINGER      FOG       39  39 100 CALM      30.03S VSB 1/4
$$

 *****  OTHER OBSERVATIONS NORTHEAST NORTH DAKOTA  *****

CITY           SKY/WX    TMP DP  RH WIND       PRES   REMARKS
WALHALLA       FAIR      55  55 100 NW10      29.91S
LANGDON        CLOUDY    55  55 100 N8        29.92S
CAVALIER       PTSUNNY   57  55  94 N9        29.89S
GRAFTON        PTSUNNY   57  57 100 N7        29.89S
CANDO          NOT AVBL
FORT TOTTEN      N/A     57  57 100 N2        29.95
ROLLA          FOG       52  52 100 N3        29.94S VSB 1/4
RUGBY          PTSUNNY   55  55 100 CALM      29.93S
 ***** THE ABOVE OBSERVATIONS ARE NON NWS ARE NOT QUALITY
        CONTROLLED AND MAY MIS-REPORT RAIN FOR SNOW...
$$

 *****  OTHER OBSERVATIONS SOUTHEAST NORTH DAKOTA *****

CITY           SKY/WX    TMP DP  RH WIND       PRES   REMARKS
COOPERSTOWN    NOT AVBL
VALLEY CITY    FAIR      54  54 100 NW8       29.92S
OAKES            N/A    N/A N/A N/A MISG        N/A
GWINNER        NOT AVBL
SHEYENNE NWR     N/A     54  54 100 CALM      29.95S
BUFFALO          N/A     55  52  91 W5          N/A
WYNDMERE         N/A     57  55  94 W3          N/A
 ***** THE ABOVE OBSERVATIONS ARE NON NWS ARE NOT QUALITY
       CONTROLLED AND MAY MIS-REPORT RAIN FOR SNOW...
$$

  *****  WEATHER ACROSS NORTHERN MINNESOTA  *****

CITY           SKY/WX    TMP DP  RH WIND       PRES   REMARKS
FLAG ISLAND    LGT RAIN  55  52  88 N9        29.82F
WARROAD        DRIZZLE   54  50  87 NW3       29.85S
ROSEAU         DRIZZLE   55  52  88 NW5       29.85F
HALLOCK        CLOUDY    57  55  94 N5        29.87S
THF RVR FALLS  CLOUDY    55  54  94 NW6       29.88S
HALSTAD        NOT AVBL
FOSSTON        CLOUDY    54  54 100 NW6       29.87S
BAUDETTE       LGT RAIN  55  54  96 NW9       29.82S FOG
WASKISH        DRIZZLE   55  54  94 NW10      29.82S
CROOKSTON      CLOUDY    57  57 100 CALM      29.88S
$$
  *****  WEATHER ACROSS CENTRAL AND WEST MINNESOTA  *****

CITY           SKY/WX    TMP DP  RH WIND       PRES   REMARKS
BEMIDJI        RAIN      55  55  99 W6        29.84R
PARK RAPIDS    LGT RAIN  59  57  93 NW8       29.83S
WADENA         RAIN      57  57 100 W6        29.85R
DETROIT LAKES  RAIN      57  55  94 NW10G16   29.88R
MOORHEAD       LGT RAIN  59  57  94 W7        29.89R
FERGUS FALLS   CLOUDY    59  59 100 NW7       29.86R
ELBOW LAKE     CLOUDY    58  57  99 NW7       29.89R
MORRIS MN        N/A     57  55  94 W7        29.89R FOG
STAPLES        DRIZZLE   57  55  94 W9        29.84S
WHEATON        CLOUDY    59  57  94 W3        29.91S
$$
  *****  WEATHER ELSEWHERE ACROSS MINNESOTA  *****

CITY           SKY/WX    TMP DP  RH WIND       PRES   REMARKS
DULUTH         LGT RAIN  57  55  93 W5        29.79S FOG
INTRNTL FALLS  FOG       56  56 100 NW3       29.78F VSB 1/4
ELY            CLOUDY    57  57 100 W3        29.77F
CLOQUET        CLOUDY    55  54  94 CALM      29.80S FOG
BRAINERD       CLOUDY    59  58  96 W7        29.82S
HIBBING        FOG       57  57 100 CALM      29.78F VSB 1/2
ALEXANDRIA     CLOUDY    59  57  93 W12       29.88R
SAINT CLOUD    CLOUDY    60  58  92 W7        29.83S
MINNEAPOLIS    CLOUDY    62  59  90 W5        29.84S
$$

  *****  WEATHER ACROSS SOUTH DAKOTA  *****

CITY           SKY/WX    TMP DP  RH WIND       PRES   REMARKS
SIOUX FALLS    MOCLDY    56  55  97 W3        29.96R
BROOKINGS      CLOUDY    58  57  97 W5        29.94S
WATERTOWN      CLOUDY    55  54  96 W3        29.93S
HURON          CLEAR     56  54  93 W7        29.95R
SISSETON         N/A     57  55  93 N6        29.89R
ABERDEEN       CLEAR     58  53  84 NW12      29.93S
MITCHELL       CLOUDY    61  58  90 W8        29.97R
PIERRE         CLEAR     53  51  93 SW3       29.97S
MOBRIDGE       CLEAR     52  48  86 CALM      29.96R
RAPID CITY     CLEAR     48  44  86 NW7       30.06R
$$

  *****  SOME WEATHER IN NEARBY STATES *****

CITY           SKY/WX    TMP DP  RH WIND       PRES   REMARKS
GLASGOW MT     PTCLDY    49  38  65 NW5       29.98S
GREAT FALLS MT MOCLDY    46  34  62 S7        30.02F
CHEYENNE WY    CLOUDY    46  37  71 W7        30.16S
SCOTTSBLUFF NE CLEAR     47  43  86 E8        30.08S
OMAHA NE       CLEAR     56  53  90 SE7       30.00R
DES MOINES IA  CLEAR     60  55  83 W5        29.97R
DAVENPORT IA   CLEAR     65  58  78 SW8       29.94S
CHICAGO IL     MOCLDY    64  61  90 SW5       29.95R
EAU CLAIRE WI  LGT RAIN  60  60 100 S5        29.81S
LA CROSSE WI   CLOUDY    64  60  87 S7        29.82F
$$

  *****  SOME NATIONAL WEATHER *****

CITY           SKY/WX    TMP DP  RH WIND       PRES   REMARKS
LA GUARDIA NY  CLOUDY    74  58  57 S5        30.11S
RALEIGH NC     MOCLDY    70  67  90 NE3       30.10R
ATLANTA GA     CLOUDY    68  60  75 NW5       30.11R
NEW ORLEANS LA PTCLDY    70  68  93 CALM      30.04R
OKLAHOMA CITY  CLOUDY    71  70  96 S8        30.04R
ALBUQUERQUE NM PTCLDY    62  18  18 CALM      30.09S
SALT LAKE CITY PTCLDY    58  40  51 SE8       30.05F
LOS ANGELES CA CLOUDY    60  53  77 W8        29.96F
BOISE ID       PTCLDY    54  35  48 SE6       30.01F
SEATTLE WA     MOCLDY    54  52  93 S9        30.05S
$$

*** WEATHER ACROSS MANITOBA...SASKATCHEWAN AND ONTARIO ***
                ***ONTARIO***

CITY           SKY/WX    TMP DP  RH WIND       PRES   REMARKS
GERALDTON      LGT RAIN  54  52  94 NE7       29.79F VSB 3/4
THUNDER BAY    LGT RAIN  57  57 100 N3        29.76F FOG
SIOUX LOOKOUT  DRIZZLE   52  52 100 CALM      29.82F FOG
TORONTO        PTCLDY    70  64  83 SE5       30.04S
BIG TROUT LK   CLOUDY    48  43  81 E8        30.04F
PICKLE LAKE    NOT AVBL
DRYDEN         CLOUDY    52  50  93 NE7       29.80F FOG
KENORA         LGT RAIN  52  52 100 N5        29.83F VSB 3/4
$$
                *** MANITOBA***

CITY           SKY/WX    TMP DP  RH WIND       PRES   REMARKS
BRANDON        CLOUDY    50  50 100 W2        29.93S
DAUPHIN        CLOUDY    50  48  93 N2        29.92F
ISLAND LAKE    CLOUDY    50  46  87 E5        29.99F
PILOT MOUND      N/A     54  52  94 N5          N/A
THE PAS        CLOUDY    46  43  87 E3        29.98F
THOMPSON       LGT RAIN  45  45 100 NE6       30.04F FOG
WINNIPEG       NOT AVBL
LYNN LAKE      CLOUDY    45  41  87 E3        30.04S
CHURCHILL      CLOUDY    27  27 100 SE10      30.25S WCI  17
$$
                ***SASKATCHEWAN***

CITY           SKY/WX    TMP DP  RH WIND       PRES   REMARKS
ESTEVAN        NOT AVBL
KINDERSLEY     PTCLDY    45  43  93 S7        29.88S
LLOYDMINSTER   FOG       41  41 100 W8        29.86S VSB 1/8
PRINCE ALBERT  CLOUDY    48  46  93 E12       29.87F
REGINA         CLEAR     41  39  93 SW8       29.92S
YORKTON        LGT RAIN  50  48  93 SE7       29.90F
N. BATTLEFORD  MOCLDY    48  48 100 W7        29.87F   C1F1C2F2C3F3C4F4C5F5C6F6C7F7C8F8C9F9CaFaCbFbCcFcCdFdCe!



USA.gov is the U.S. government's official web portal to all federal, state and local government web resources and services.